Regional Weather Roundup
Issued by NWS San Angelo, TX

Home | Current Version | Previous Version | Text Only | Print | Product List | Glossary On
Versions: 1 2 3 4 5 6 7 8 9 10 11 12 13 14 15 16 17 18 19 20 21 22 23 24 25 26 27 28 29 30 31 32 33 34 35 36 37 38 39 40 41 42 43 44 45 46 47 48 49 50
000
ASUS44 KSJT 030010
RWRSJT
WEST CENTRAL TEXAS REGIONAL WEATHER ROUNDUP
NATIONAL WEATHER SERVICE SAN ANGELO TX
700 PM CDT TUE SEP 02 2014

NOTE: "FAIR" INDICATES FEW OR NO CLOUDS BELOW 12,000 FEET WITH NO
SIGNIFICANT WEATHER AND/OR OBSTRUCTIONS TO VISIBILITY.

TXZ049-054-064>066-071>073-076>078-098-099-113-114-127-128-139-140-
154-155-168>170-030100
...LOCATIONS ACROSS WEST CENTRAL TEXAS...

CITY           SKY/WX    TMP DP  RH WIND       PRES   REMARKS
SAN ANGELO     MOSUNNY   94  61  33 SE14      29.89S
ABILENE        SUNNY     95  61  32 S14       29.89S
DYESS AFB      SUNNY     94  64  37 S15G24    29.88S
JUNCTION       MOSUNNY   94  61  33 SE10      29.90S
SWEETWATER     SUNNY     93  58  31 SE13      29.94S
BROWNWOOD      MOSUNNY   93  63  36 SE16      29.88S
COLEMAN        CLEAR     95  57  28 S14       29.89S
SONORA         MOSUNNY   91  61  35 SE8G16    29.95S
OZONA          FAIR      91  59  33 SE15G21   29.93S
BRADY          SUNNY     93  61  33 SE13      29.90S
$$

TEXAS PANHANDLE/OKLAHOMA PANHANDLE

CITY           SKY/WX    TMP DP  RH WIND       PRES   REMARKS
AMARILLO       TSTM      74  64  71 NE38G51   29.97R VSB 1
BORGER         SUNNY     94  59  31 S9G18     29.89F
CANADIAN       SUNNY     93  65  39 S9G18     29.86S
DALHART        SUNNY     87  62  43 SE8       29.97F
DUMAS          CLEAR     90  62  38 E5        29.94F
GUYMON         NOT AVBL
HEREFORD       NOT AVBL
PAMPA          CLEAR     91  57  31 S15       29.92F
PERRYTON       SUNNY     90  62  39 SE7       29.91S
$$

SOUTHERN PANHANDLE/SOUTH PLAINS/ROLLING PLAINS

CITY           SKY/WX    TMP DP  RH WIND       PRES   REMARKS
LUBBOCK        PTSUNNY   94  59  31 SE21G26   29.91F
SNYDER         SUNNY     93  62  34 SE18G24   29.90F
CHILDRESS      SUNNY     95  59  30 S18G28    29.86S
SEMINOLE       PTCLDY    94  54  25 SE15G26   29.90S
$$

PERMIAN BASIN

CITY           SKY/WX    TMP DP  RH WIND       PRES   REMARKS
MIDLAND        SUNNY     95  58  28 SE23G31   29.87F
ODESSA         SUNNY     97  56  25 SE20G28   29.88F
WINK           MOSUNNY  100  55  22 SE18G26   29.82S
$$

FAR WEST/SOUTHWEST MOUNTAINS/TRANS PECOS

CITY           SKY/WX    TMP DP  RH WIND       PRES   REMARKS
ALPINE         PTCLDY    90  56  32 SE13G20   30.03S
DRYDEN           N/A     97  60  29 E21       29.85F
EL PASO        MOSUNNY   98  28   8 CALM      29.89F
FORT STOCKTON  MOSUNNY   93  59  31 SE20G26   29.88S
GUADALUPE PASS SUNNY     91  31  11 E16       30.05F
MARFA          PTSUNNY   90  52  27 SE9G20    30.03F
PECOS          PTCLDY    99  55  22 SE17      29.80S
$$

DALLAS/FORT WORTH METROPLEX

CITY           SKY/WX    TMP DP  RH WIND       PRES   REMARKS
DFW AIRPORT    PTCLDY    95  67  39 S12       29.87F
FTW MEACHAM    SUNNY     95  67  39 SE16      29.87S
DAL-EXECUTIVE  MOCLDY    96  67  38 SE18      29.88S
GRAND PRAIRIE  CLEAR     93  64  38 SE9       29.89S
ADDISON        PTCLDY    95  64  36 SE18      29.89F
MESQUITE       PTCLDY    93  66  40 SE13G18   29.89S
LANCASTER      CLEAR     89  70  52 SE10G18   29.90S
$$

NORTH CENTRAL TEXAS

CITY           SKY/WX    TMP DP  RH WIND       PRES   REMARKS
SHRMAN/DENISON CLEAR     91  67  44 SE10G17   29.91S
GAINESVILLE    SUNNY     91  68  47 SE10G18   29.91S
BRIDGEPORT     PTCLDY    94  59  31 S10       29.90S
DENTON         SUNNY     94  65  38 S17       29.87F
WAXAHACHIE     PTCLDY    92  65  41 SE7       29.90S
GRANBURY       CLEAR     97  63  32 SE10G16   29.88S
$$

WESTERN NORTH TEXAS

CITY           SKY/WX    TMP DP  RH WIND       PRES   REMARKS
WICHITA FALLS  MOSUNNY   94  67  41 SE21G28   29.85R
VERNON         CLEAR     97  61  30 S17       29.84F
BRECKENRIDGE   CLEAR     96  59  28 SE10G20   29.87S
COMANCHE         N/A     94  60  32 SE13G21   29.89F
$$

CENTRAL AND SOUTH CENTRAL TEXAS

CITY           SKY/WX    TMP DP  RH WIND       PRES   REMARKS
AUSTIN/BERGSTM PTSUNNY   93  68  43 SE17      29.89S
WACO           MOSUNNY   93  68  43 S16G25    29.88F
HILLSBORO      PTCLDY    92  67  43 SE17      29.89S
TEMPLE         MOSUNNY   90  66  45 SE14      29.89F
KILLEEN-GRAY   MOSUNNY   91  70  49 SE20G30   29.89F
FORT HOOD      MOSUNNY   95  69  42 SE13G21   29.89F
GEORGETOWN     MOSUNNY   90  70  51 SE13      29.90S
LAGO VISTA     FAIR      89  69  52 SE12G21   29.93S
SAN MARCOS     MOSUNNY   90  68  48 SE15      29.91R
NEW BRAUNFELS  MOSUNNY   93  68  43 SE17G28   29.88R
RANDOLPH AFB   PTSUNNY   93  68  44 SE18      29.89R
SAN ANTONIO    MOSUNNY   92  69  47 SE15G25   29.88S
STINSON        MOSUNNY   93  68  43 SE21G26   29.86R
PLEASANTON     NOT AVBL
LA GRANGE      CLEAR     92  73  53 SE16      29.90R
GIDDINGS       PTCLDY    91  67  45 SE8G17    29.94S
$$

EAST TEXAS

CITY           SKY/WX    TMP DP  RH WIND       PRES   REMARKS
PARIS          CLEAR     88  64  45 SE7       29.92F
CLARKSVILLE    NOT AVBL
TYLER          CLOUDY    83  72  69 SE12      29.93F
LONGVIEW       CLOUDY    78  71  79 CALM      29.94F
PALESTINE      CLOUDY    78  75  91 SE5       29.95S
NACOGDOCHES    CLOUDY    75  73  94 SE6       29.97R
$$

TEXAS HILL COUNTRY AND EDWARDS PLATEAU

CITY           SKY/WX    TMP DP  RH WIND       PRES   REMARKS
LLANO          PTCLDY    93  68  43 SE9G21    29.91R
HORSESHOE BAY  FAIR      93  65  39 S10G20    29.90S
KERRVILLE      SUNNY     90  69  50 SE15      29.92R
FREDERICKSBRG  SUNNY     89  65  43 SE8G16    29.93R
ROCKSPRINGS    CLEAR     91  63  38 SE12      29.95S
HONDO          SUNNY     94  67  41 SE20G26   29.87S
UVALDE         PTCLDY    94  68  42 SE16      29.84S
DEL RIO        SUNNY     97  62  31 E12       29.80F
$$

SOUTHEAST TEXAS

CITY           SKY/WX    TMP DP  RH WIND       PRES   REMARKS
COLLEGE STN    PTCLDY    91  70  49 SE14      29.90F
CALDWELL       PTCLDY    88  66  48 SE10      29.93F
CROCKETT       CLOUDY    82  79  89 SE5       29.96F
BRENHAM        CLEAR     92  70  47 SE13G20   29.92S
HUNTSVILLE     CLOUDY    84  76  76 E3        29.93F THUNDER
CONROE         PTCLDY    88  73  61 SE17      29.94F
HOUSTON BUSH   PTCLDY    86  75  69 SE15      29.95S
HOUSTON HOBBY  PTCLDY    86  73  65 SE13      29.95R
PERLAND        CLEAR     87  73  62 SE9G20    29.97R
WHARTON        CLEAR     86  74  65 SE12      29.94S
$$

THE UPPER TEXAS COAST

CITY           SKY/WX    TMP DP  RH WIND       PRES   REMARKS
ORANGE         PTCLDY    86  75  70 SE6       30.00R
PORT ARTHUR    PTCLDY    85  75  72 S8        29.98R
GALVESTON      CLEAR     86  77  74 SE12      29.96S
ANGLETON       PTCLDY    83  75  77 SE6       29.95S
BAY CITY       PTCLDY    87  76  70 S6        29.94S
$$

TEXAS COASTAL BEND, RIO GRANDE PLAINS DEEP SOUTH TEXAS

CITY           SKY/WX    TMP DP  RH WIND       PRES   REMARKS
VICTORIA       PTCLDY    88  75  65 SE22      29.92R
BEEVILLE       FAIR      89  69  51 SE18      29.89R
ROCKPORT       PTCLDY    86  74  67 SE16      29.90R
PORT ARANSAS   CLOUDY    85  76  74 E13       29.89S
PORT LAVACA    MOCLDY    86  74  68 SE13      29.92S
CORPUS CHRISTI PTSUNNY   86  73  65 SE20      29.88S
KINGSVILLE NAS PTSUNNY   86  77  74 SE16      29.88R
COTULLA        SUNNY     95  66  38 SE22G30   29.83R
LAREDO         PTSUNNY   89  74  61 SE18      29.84R
BROWNSVILLE    PTCLDY    85  75  72 E17G25    29.84R
PORT ISABEL    PTCLDY    87  73  62 SE22      29.84R
HEBBRONVILLE   MOCLDY    87  71  57 E24G30    29.87R
MCALLEN        MOSUNNY   84  75  74 SE16      29.84R
WESLACO        NOT AVBL
FALFURRIAS     CLOUDY    83  71  67 E13       29.85S
EDINBURG       CLEAR     89  72  57 SE13      29.83R
$$


USA.gov is the U.S. government's official web portal to all federal, state and local government web resources and services.